Location: Cassano d�Adda
(45.5333°N, 9.5167°E)
Time: 16:59:40
(UTC+00:00)

Cosmos 1441 Rocket - Pass Details

Date: 08 December 2019
Orbit: 496 x 541 km, 81.1° (Epoch: 20 January)

Event Time Altitude Azimuth Distance (km) Brightness Sun altitude
Rises 16:59:07 0° 359° (N) 2,657 6.6 -13.6°
Reaches altitude 10° 17:01:32 10° 12° (NNE) 1,755 5.6 -14.0°
Maximum altitude 17:04:51 27° 71° (ENE) 1,011 4.0 -14.5°
Enters shadow 17:05:47 24° 96° (E) 1,084 4.3 -14.7°
Exits shadow 17:08:03 10° 130° (SE) 1,698 5.5 -15.0°
Drops below altitude 10° 17:08:06 10° 131° (SE) 1,720 5.5 -15.1°
Sets 17:10:26 0° 144° (SE) 2,592 6.6 -15.4°
